When you browse on this site, cookies collect data to enhance your experience and personalize the content and advertising you see.
Visit our Privacy Policy to learn more. By continuing to use the site, you agree to this use of cookies and data.
  • In Romania
  • List of Countries
  • For 7 days
  • Water Temperature
  • Satellite Maps
  • Weather Map
  • Weather Widgets
  • user-avatar
    Login

    Hourly Weather Matrah

    Today, 20 May, Monday

    Time Temperature Precipitation Wind Pressure Humidity
    00:00 +35°C° 0 mm 3 mps 755 mmHg 48%
    01:00 +35°C° 0 mm 3 mps 755 mmHg 49%
    02:00 +35°C° 0 mm 3 mps 754 mmHg 48%
    03:00 +35°C° 0 mm 2 mps 754 mmHg 48%
    04:00 +34°C° 0 mm 2 mps 754 mmHg 48%
    05:00 +34°C° 0 mm 2 mps 754 mmHg 47%
    06:00 +34°C° 0 mm 1 mps 755 mmHg 46%
    07:00 +34°C° 0 mm 1 mps 755 mmHg 45%
    08:00 +35°C° 0 mm 1 mps 755 mmHg 41%
    09:00 +37°C° 0 mm 2 mps 755 mmHg 37%
    10:00 +39°C° 0 mm 3 mps 755 mmHg 33%
    11:00 +40°C° 0 mm 4 mps 755 mmHg 33%
    12:00 +41°C° 0 mm 5 mps 755 mmHg 32%
    13:00 +42°C° 0 mm 6 mps 755 mmHg 31%
    14:00 +41°C° 0.1 mm 6 mps 754 mmHg 34%
    15:00 +40°C° 0.1 mm 6 mps 754 mmHg 36%
    16:00 +40°C° 0.1 mm 6 mps 753 mmHg 39%
    17:00 +40°C° 0.1 mm 6 mps 753 mmHg 38%
    18:00 +40°C° 0.1 mm 5 mps 753 mmHg 37%
    19:00 +40°C° 0.1 mm 5 mps 753 mmHg 36%
    20:00 +38°C° 0.3 mm 6 mps 754 mmHg 45%
    21:00 +34°C° 0.3 mm 7 mps 754 mmHg 55%
    22:00 +32°C° 0.3 mm 8 mps 754 mmHg 65%
    23:00 +33°C° 0.3 mm 6 mps 754 mmHg 62%

    Tomorrow, 21 May, Tuesday

    Time Temperature Precipitation Wind Pressure Humidity
    00:00 +33°C° 0.3 mm 5 mps 754 mmHg 59%
    01:00 +34°C° 0.3 mm 4 mps 754 mmHg 57%
    02:00 +34°C° 0 mm 4 mps 754 mmHg 55%
    03:00 +35°C° 0 mm 3 mps 754 mmHg 53%
    04:00 +35°C° 0 mm 3 mps 753 mmHg 52%
    05:00 +35°C° 0 mm 3 mps 754 mmHg 52%
    06:00 +35°C° 0 mm 3 mps 754 mmHg 52%
    07:00 +35°C° 0 mm 2 mps 754 mmHg 52%
    08:00 +37°C° 0 mm 2 mps 754 mmHg 47%
    09:00 +38°C° 0 mm 2 mps 754 mmHg 42%
    10:00 +39°C° 0 mm 1 mps 754 mmHg 37%
    11:00 +40°C° 0 mm 2 mps 754 mmHg 34%
    12:00 +42°C° 0 mm 4 mps 754 mmHg 31%
    13:00 +43°C° 0 mm 5 mps 753 mmHg 28%
    14:00 +42°C° 0 mm 4 mps 753 mmHg 34%
    15:00 +40°C° 0 mm 4 mps 753 mmHg 40%
    16:00 +38°C° 0 mm 3 mps 752 mmHg 46%
    17:00 +37°C° 0 mm 3 mps 753 mmHg 47%
    18:00 +37°C° 0 mm 2 mps 753 mmHg 48%
    19:00 +36°C° 0 mm 1 mps 753 mmHg 49%
    20:00 +35°C° 0 mm 1 mps 753 mmHg 50%
    21:00 +35°C° 0 mm 1 mps 754 mmHg 52%
    22:00 +35°C° 0 mm 1 mps 754 mmHg 53%
    23:00 +35°C° 0 mm 1 mps 754 mmHg 53%

    Day after tomorrow, 22 May, Wednesday

    Time Temperature Precipitation Wind Pressure Humidity
    00:00 +34°C° 0 mm 1 mps 754 mmHg 53%
    01:00 +35°C° 0 mm 2 mps 753 mmHg 54%
    02:00 +35°C° 0 mm 2 mps 753 mmHg 53%
    03:00 +34°C° 0 mm 1 mps 753 mmHg 53%
    04:00 +33°C° 0 mm 1 mps 753 mmHg 52%
    05:00 +34°C° 0 mm 1 mps 753 mmHg 50%
    06:00 +34°C° 0 mm 1 mps 753 mmHg 47%
    07:00 +36°C° 0 mm 2 mps 754 mmHg 44%
    08:00 +38°C° 0 mm 2 mps 754 mmHg 34%
    09:00 +40°C° 0 mm 3 mps 754 mmHg 23%
    10:00 +43°C° 0 mm 4 mps 754 mmHg 12%
    11:00 +43°C° 0 mm 5 mps 754 mmHg 14%
    12:00 +43°C° 0 mm 5 mps 754 mmHg 15%
    13:00 +43°C° 0 mm 5 mps 753 mmHg 17%
    14:00 +42°C° 0 mm 4 mps 753 mmHg 19%
    15:00 +40°C° 0 mm 3 mps 752 mmHg 21%
    16:00 +39°C° 0 mm 2 mps 752 mmHg 23%
    17:00 +39°C° 0 mm 2 mps 752 mmHg 22%
    18:00 +39°C° 0 mm 2 mps 752 mmHg 21%
    19:00 +39°C° 0 mm 2 mps 752 mmHg 20%
    20:00 +38°C° 0 mm 2 mps 753 mmHg 21%
    21:00 +38°C° 0 mm 3 mps 753 mmHg 21%
    22:00 +38°C° 0 mm 3 mps 753 mmHg 22%
    23:00 +37°C° 0 mm 3 mps 753 mmHg 22%

    23 May, Thursday

    Time Temperature Precipitation Wind Pressure Humidity
    00:00 +37°C° 0 mm 3 mps 752 mmHg 23%
    01:00 +36°C° 0 mm 3 mps 752 mmHg 24%
    02:00 +36°C° 0 mm 3 mps 752 mmHg 22%
    03:00 +36°C° 0 mm 3 mps 752 mmHg 21%
    04:00 +35°C° 0 mm 3 mps 751 mmHg 19%
    05:00 +36°C° 0 mm 3 mps 752 mmHg 16%
    06:00 +37°C° 0 mm 3 mps 752 mmHg 14%
    07:00 +38°C° 0 mm 3 mps 753 mmHg 11%
    08:00 +41°C° 0 mm 4 mps 753 mmHg 11%
    09:00 +42°C° 0 mm 5 mps 753 mmHg 10%
    10:00 +45°C° 0 mm 6 mps 753 mmHg 9%
    11:00 +46°C° 0 mm 6 mps 753 mmHg 8%
    12:00 +46°C° 0 mm 6 mps 752 mmHg 8%
    13:00 +47°C° 0 mm 6 mps 752 mmHg 8%
    14:00 +46°C° 0 mm 6 mps 751 mmHg 10%
    15:00 +45°C° 0 mm 6 mps 751 mmHg 13%
    16:00 +43°C° 0 mm 5 mps 750 mmHg 15%
    17:00 +42°C° 0 mm 4 mps 751 mmHg 17%
    18:00 +40°C° 0 mm 3 mps 751 mmHg 20%
    19:00 +38°C° 0 mm 2 mps 751 mmHg 22%
    20:00 +38°C° 0 mm 2 mps 752 mmHg 23%
    21:00 +38°C° 0 mm 2 mps 752 mmHg 24%
    22:00 +37°C° 0 mm 3 mps 753 mmHg 25%
    23:00 +37°C° 0 mm 3 mps 752 mmHg 26%

    24 May, Friday

    Time Temperature Precipitation Wind Pressure Humidity
    00:00 +37°C° 0 mm 3 mps 752 mmHg 26%
    01:00 +36°C° 0 mm 3 mps 752 mmHg 26%
    02:00 +36°C° 0 mm 3 mps 752 mmHg 24%
    03:00 +36°C° 0 mm 3 mps 752 mmHg 21%
    04:00 +36°C° 0 mm 3 mps 751 mmHg 18%
    05:00 +37°C° 0 mm 3 mps 752 mmHg 16%
    06:00 +38°C° 0 mm 3 mps 752 mmHg 14%
    07:00 +39°C° 0 mm 2 mps 753 mmHg 12%
    08:00 +40°C° 0 mm 3 mps 753 mmHg 11%
    09:00 +43°C° 0 mm 3 mps 753 mmHg 10%
    10:00 +44°C° 0 mm 4 mps 754 mmHg 9%
    11:00 +44°C° 0 mm 4 mps 753 mmHg 10%
    12:00 +44°C° 0 mm 4 mps 753 mmHg 10%
    13:00 +44°C° 0 mm 4 mps 752 mmHg 11%
    14:00 +44°C° 0 mm 4 mps 752 mmHg 13%
    15:00 +43°C° 0 mm 3 mps 752 mmHg 15%
    16:00 +42°C° 0 mm 3 mps 751 mmHg 18%
    17:00 +40°C° 0 mm 2 mps 752 mmHg 18%
    18:00 +40°C° 0 mm 2 mps 752 mmHg 19%
    19:00 +39°C° 0 mm 2 mps 752 mmHg 20%
    20:00 +39°C° 0 mm 1 mps 752 mmHg 20%
    21:00 +37°C° 0 mm 1 mps 753 mmHg 20%
    22:00 +37°C° 0 mm 1 mps 753 mmHg 20%
    23:00 +37°C° 0 mm 1 mps 753 mmHg 20%

    25 May, Saturday

    Time Temperature Precipitation Wind Pressure Humidity
    00:00 +36°C° 0 mm 1 mps 752 mmHg 19%
    01:00 +34°C° 0 mm 0 mps 752 mmHg 19%
    02:00 +35°C° 0 mm 1 mps 752 mmHg 19%
    03:00 +35°C° 0 mm 1 mps 752 mmHg 19%
    04:00 +36°C° 0 mm 2 mps 752 mmHg 19%
    05:00 +36°C° 0 mm 2 mps 752 mmHg 20%
    06:00 +36°C° 0 mm 2 mps 753 mmHg 21%
    07:00 +37°C° 0 mm 2 mps 753 mmHg 22%
    08:00 +38°C° 0 mm 2 mps 753 mmHg 20%
    09:00 +39°C° 0 mm 2 mps 753 mmHg 18%
    10:00 +40°C° 0 mm 1 mps 754 mmHg 17%
    11:00 +41°C° 0 mm 2 mps 753 mmHg 17%
    12:00 +42°C° 0 mm 3 mps 753 mmHg 17%
    13:00 +43°C° 0 mm 3 mps 752 mmHg 17%
    14:00 +42°C° 0 mm 3 mps 752 mmHg 19%
    15:00 +42°C° 0 mm 3 mps 752 mmHg 20%
    16:00 +42°C° 0 mm 3 mps 751 mmHg 21%
    17:00 +40°C° 0 mm 3 mps 751 mmHg 22%
    18:00 +39°C° 0 mm 3 mps 752 mmHg 24%
    19:00 +39°C° 0 mm 3 mps 752 mmHg 25%
    20:00 +38°C° 0 mm 3 mps 752 mmHg 27%
    21:00 +38°C° 0 mm 3 mps 752 mmHg 28%
    22:00 +37°C° 0 mm 3 mps 752 mmHg 30%
    23:00 +37°C° 0 mm 2 mps 752 mmHg 30%
    Show more